Regional Weather Roundup
Issued by NWS

Home | Current Version | Previous Version | Text Only | Print | Product List | Glossary On
Versions: 1 2 3 4 5 6 7 8 9 10 11 12 13 14 15 16 17 18 19 20 21 22 23 24 25 26 27 28 29 30 31 32 33 34 35 36 37 38 39 40 41 42 43 44 45 46 47 48 49 50
000
ASUS46 KPQR 291110
RWROR

OREGON REGIONAL WEATHER ROUNDUP
NATIONAL WEATHER SERVICE PORTLAND OR
400 AM PDT SUN MAY 29 2016

NOTE: "FAIR" INDICATES FEW OR NO CLOUDS BELOW 12,000 FEET WITH
NO SIGNIFICANT WEATHER AND/OR OBSTRUCTIONS TO VISIBILITY.

ORZ001>013-291200-
NORTHWEST OREGON


CITY           SKY/WX    TMP DP  RH WIND       PRES   REMARKS
ASTORIA        CLOUDY    54  52  93 CALM      30.08R
NEWPORT        CLOUDY    54  52  94 N3        30.12S
PORTLAND       CLOUDY    58  50  75 NW3       30.07F
VANCOUVER WA   CLOUDY    56  51  84 CALM      30.07S
SCAPPOOSE      CLOUDY    51  48  89 W3        30.07S
HILLSBORO      CLOUDY    52  48  86 NW3       30.07S
AURORA         CLOUDY    54  49  83 CALM      30.08S
MCMINNVILLE    MOCLDY    48  45  89 NW6       30.09R
SALEM          CLOUDY    54  49  83 SW3       30.07S
CORVALLIS        N/A     48  45  87 NW3       30.10R
EUGENE         MOCLDY    48  44  86 W5        30.09R
$$

ORZ021-028-291200-
SOUTHWEST OREGON


CITY           SKY/WX    TMP DP  RH WIND       PRES   REMARKS
NORTH BEND     CLOUDY    55  52  88 S3        30.11S
BROOKINGS      PTCLDY    49  46  90 CALM      30.05S
ROSEBURG       PTCLDY    50  43  77 CALM      30.08R
SEXTON SUMMIT  CLEAR     49  38  65 N10       30.06F
MEDFORD        CLEAR     50  42  74 CALM      30.04S
$$

ORZ014>016-041-291200-
COLUMBIA GORGE


CITY           SKY/WX    TMP DP  RH WIND       PRES   REMARKS
TROUTDALE      CLOUDY    59  50  72 CALM      30.07S
THE DALLES     PTCLDY    58  47  66 NW9       30.01S
$$

ORZ029>031-041-044-049-050-061>064-502-503-505>511-291200-
EASTERN OREGON


CITY           SKY/WX    TMP DP  RH WIND       PRES   REMARKS
REDMOND        CLEAR     44  37  76 CALM      30.04F
BEND           CLEAR     46  39  76 W5        30.04F
PRINEVILLE     CLEAR     43  41  93 S3        30.04S
KLAMATH FALLS  CLEAR     39  35  86 CALM      30.07S
LAKEVIEW       CLEAR     43  36  75 N10       30.08F
HERMISTON      PTCLDY    58  45  62 CALM      29.98S
PENDLETON      PTCLDY    53  41  63 SE7       30.00S
JOHN DAY         N/A    N/A N/A N/A MISG        N/A
MEACHAM        CLOUDY    41  36  82 CALM      30.04F
LA GRANDE      CLOUDY    48  34  57 CALM      30.02S
BAKER CITY     CLOUDY    38  35  89 NE3       30.03F
BURNS          CLEAR     36  28  73 NW3       30.04F
ROME             N/A     39  28  64 S5        30.04R
ONTARIO        CLEAR     44  36  73 W5        30.02F
$$



USA.gov is the U.S. government's official web portal to all federal, state and local government web resources and services.